Location: Bidart
(43.4376°N, 1.5913°W)
Time: 20:53:27
(UTC+00:00)

Cosmos 158 Rocket - Pass Details

Date: 19 May 2025
Orbit: 694 x 787 km, 74.0° (Epoch: 21 June)

Event Time Altitude Azimuth Distance (km) Brightness Sun altitude
Rises 20:29:08 0° 184° (S) 3,215 6.9 -9.9°
Reaches altitude 10° 20:31:31 10° 179° (S) 2,305 6.1 -10.2°
Maximum altitude 20:36:36 52° 105° (ESE) 969 4.2 -10.9°
Drops below altitude 10° 20:41:47 10° 30° (NNE) 2,353 6.7 -11.6°
Sets 20:44:14 0° 26° (NNE) 3,289 7.5 -11.9°
